Wind_Speed
25 26 26 26 27 29 29 30 31 32 33 33 33 33 32 33 34 35 36 36 36 37 38 39 40 40 41 42 42 43 42 43 44 45 45 46 46 46 46 47 48 48 48 48
25 25 26 27 27 28 29 30 31 32 33 33 33 32 33 33 34 34 35 35 35 36 37 37 38 40 41 42 42 43 43 43 44 45 45 45 45 44 46 48 48 49 49 48
24 24 24 25 26 27 28 29 30 31 31 33 34 32 31 33 33 34 35 36 36 37 37 37 38 39 39 40 41 42 43 44 44 45 45 45 45 45 45 46 47 48 48 49
23 23 23 24 24 25 26 27 28 29 30 30 32 33 30 32 32 33 35 35 36 36 37 37 37 37 38 38 39 41 42 43 44 44 45 45 45 45 46 45 45 46 47 48
22 22 23 23 23 24 24 26 27 28 29 29 28 31 30 30 31 32 34 34 34 35 35 35 36 35 36 37 39 40 42 42 43 44 44 43 44 45 46 46 46 46 47 46
21 22 23 23 23 23 24 25 27 28 29 28 27 29 30 29 30 32 33 33 33 34 34 34 35 35 35 35 37 38 40 41 43 44 45 45 44 45 45 44 44 45 45 45
21 21 21 22 22 23 24 24 26 27 28 28 27 28 29 29 30 30 31 32 32 32 32 32 32 33 33 34 35 37 39 40 41 43 45 45 45 44 44 43 43 44 44 44
21 21 20 20 20 21 21 23 24 26 27 27 25 26 27 27 28 28 29 30 30 29 29 29 30 30 31 31 32 34 36 38 38 39 42 42 43 43 44 44 43 43 44 44
21 21 20 20 20 20 21 22 24 25 26 25 24 24 24 24 25 26 27 28 28 28 27 27 28 29 29 29 30 32 34 35 35 37 39 40 40 41 43 44 43 42 43 43
22 22 21 20 21 22 22 22 23 24 26 26 25 25 25 24 25 26 27 28 28 27 27 27 27 28 28 28 28 29 31 32 34 36 37 37 38 39 41 43 43 43 44 45
23 23 22 23 22 22 23 23 24 25 25 25 24 23 24 25 26 26 26 26 26 26 26 26 27 28 27 27 27 29 31 31 32 33 34 35 35 36 39 40 41 42 42 43
23 24 23 23 23 24 24 24 24 24 24 25 25 24 24 25 26 25 24 24 25 24 24 24 25 26 25 25 26 27 29 30 31 32 32 34 34 34 35 37 38 40 40 41
23 23 24 24 24 24 24 24 24 24 25 25 25 24 24 25 25 25 24 24 24 24 24 23 24 24 24 24 25 26 28 29 31 31 32 34 34 34 34 36 36 37 37 37
23 24 24 24 24 25 24 24 24 25 25 25 24 24 24 25 25 25 24 24 24 25 24 23 23 24 25 26 25 26 27 29 29 30 30 32 33 33 33 34 35 34 34 35
25 25 24 24 25 25 24 25 25 25 25 25 23 24 25 25 25 24 24 24 24 24 24 23 22 23 25 26 26 26 26 27 28 29 30 32 32 31 31 31 32 32 33 33
26 26 25 25 25 26 25 25 25 25 24 24 24 24 25 25 25 24 24 24 23 23 24 23 23 24 25 25 25 25 26 26 27 28 29 30 31 31 30 29 29 30 31 31
25 26 26 25 25 26 25 23 24 24 24 25 24 24 24 24 24 24 25 25 24 23 23 23 23 23 24 25 25 24 25 25 26 27 27 27 29 29 28 28 29 29 28 29
25 26 26 26 26 26 24 24 25 25 24 25 24 24 24 24 23 23 25 24 24 24 23 23 23 24 24 24 24 23 23 24 24 24 24 24 25 26 26 26 26 27 28 28
25 26 26 26 26 26 25 24 24 24 24 24 24 24 24 24 24 23 24 25 25 23 23 23 24 24 24 23 23 22 22 22 22 22 21 21 22 22 23 24 24 25 26 26
24 25 25 25 26 26 25 25 25 25 24 24 24 23 24 25 24 23 24 24 23 23 22 22 23 23 23 22 21 21 20 20 20 20 19 19 19 19 20 22 23 23 24 24
24 25 25 25 26 25 25 25 25 24 24 24 24 24 24 25 25 24 24 24 23 22 21 21 21 21 21 21 19 19 19 18 18 17 18 18 18 19 19 19 21 22 22 23
25 25 25 25 25 25 24 25 24 24 24 24 24 24 25 25 25 24 25 25 23 23 21 21 21 21 21 20 19 18 18 17 16 16 17 17 17 18 19 19 19 20 21 22
24 25 25 25 24 24 24 24 25 25 24 24 24 25 25 25 25 25 24 24 23 23 22 21 21 21 20 19 19 18 18 17 16 16 17 17 17 17 18 19 20 20 20 21
24 25 25 25 23 23 24 25 25 26 25 24 25 25 25 25 25 25 25 24 24 23 23 21 21 20 20 20 19 18 17 16 16 16 17 16 17 18 18 19 19 19 20 20
25 25 26 26 24 24 24 25 26 26 26 25 25 25 26 26 25 26 25 24 23 22 22 21 20 20 20 20 19 19 18 17 17 17 17 17 18 19 19 20 19 20 20 20
25 26 26 25 25 26 26 26 26 25 25 26 26 25 25 25 25 25 24 23 22 22 22 21 20 20 19 19 19 19 18 17 17 18 18 18 18 19 19 19 19 20 20 20
Wind_Direction
280 279 280 279 275 274 273 273 272 272 272 272 273 274 275 276 277 277 276 275 276 275 275 272 270 269 267 265 262 257 254 254 254 253 255 256 256 256 254 254 254 254 255 255
282 281 281 280 278 276 276 275 274 274 272 273 273 274 276 277 278 279 278 278 279 278 276 273 272 269 267 265 262 257 255 255 254 255 256 257 257 258 255 255 255 255 255 255
285 286 285 283 280 278 277 277 276 275 274 273 274 273 275 277 278 279 280 280 281 281 278 275 275 273 269 266 262 258 256 256 257 256 256 257 257 258 257 256 255 256 256 258
286 287 285 284 284 282 281 280 278 276 276 275 274 275 274 278 280 281 281 282 282 281 280 277 277 275 270 267 263 259 258 257 256 256 257 257 258 257 257 257 258 257 256 257
289 288 286 286 286 285 284 283 281 279 279 279 278 278 277 281 282 283 283 283 283 281 280 278 277 276 272 270 266 263 260 258 257 257 258 258 257 257 258 258 258 257 255 256
290 290 287 287 287 287 286 286 285 283 282 281 281 280 279 282 284 284 284 284 283 281 280 278 277 277 274 271 268 265 260 259 258 258 257 258 257 257 258 259 258 256 255 255
291 293 290 288 287 287 288 289 290 288 286 286 284 283 284 284 285 285 286 286 284 282 282 281 281 278 275 272 269 267 263 262 261 259 257 257 257 256 256 257 257 256 256 256
291 293 292 289 291 292 291 292 293 293 292 292 290 286 288 288 287 286 288 288 287 285 283 283 282 281 277 272 270 268 265 264 262 261 258 258 257 255 254 255 256 257 257 257
292 292 290 289 290 292 294 296 296 295 295 294 294 290 289 290 289 287 287 288 288 287 284 284 284 282 278 275 273 271 269 266 263 262 262 261 259 256 254 254 256 258 257 257
291 290 288 287 287 289 292 296 295 293 293 291 290 289 288 287 287 288 289 289 288 287 285 286 286 284 281 278 276 273 271 268 265 264 263 263 260 257 255 255 256 257 258 259
293 291 287 285 286 288 291 294 293 291 290 290 290 289 288 289 290 292 294 293 292 290 289 289 289 287 284 281 278 274 269 267 268 265 264 262 261 258 258 256 256 258 258 258
293 291 289 287 287 287 289 291 292 291 290 289 289 292 291 290 292 292 292 294 295 293 290 291 290 287 285 284 281 278 273 270 269 266 265 263 262 262 260 257 257 259 258 258
294 293 291 289 289 289 289 291 290 290 289 287 288 292 292 291 291 290 289 293 295 294 291 291 289 290 289 288 285 280 274 272 271 268 267 266 266 263 261 258 257 258 258 258
293 292 292 291 292 293 291 291 289 288 290 289 288 290 289 291 291 290 289 291 293 295 292 290 291 289 290 290 286 283 277 274 274 271 268 267 266 264 262 259 257 257 257 257
293 292 292 290 289 289 290 289 288 289 289 289 289 290 291 291 291 290 289 289 292 294 293 288 287 288 291 291 286 285 280 278 275 272 270 268 267 266 263 261 260 259 258 257
295 293 292 289 288 287 287 287 288 289 288 288 288 289 290 292 290 288 288 288 290 294 296 293 290 290 292 292 289 284 283 280 276 275 273 271 268 267 265 263 261 260 261 259
299 296 293 290 289 290 288 288 289 289 288 287 289 290 291 291 291 288 286 286 288 292 295 294 293 294 291 291 290 286 286 284 279 278 277 273 270 269 268 266 264 263 264 263
299 298 294 291 289 288 291 289 288 288 287 287 287 289 291 292 291 289 287 287 288 291 292 294 293 293 294 290 288 288 288 287 283 280 277 274 270 269 269 269 266 264 265 264
298 298 295 292 290 290 288 289 290 289 286 286 288 289 291 292 291 291 289 288 291 292 294 294 295 294 292 290 288 288 289 288 286 282 276 272 272 270 269 267 267 268 267 266
299 299 296 293 291 292 291 290 290 289 287 287 288 290 291 292 292 292 291 290 291 293 294 294 295 292 290 289 287 288 292 292 289 284 278 275 273 272 271 269 267 267 270 272
298 299 297 294 292 292 292 292 291 291 291 288 287 289 292 294 295 295 293 293 291 292 293 294 295 295 293 290 288 288 291 293 290 286 283 279 277 276 275 273 271 271 273 272
298 300 298 296 293 294 293 292 292 292 290 288 287 288 291 293 295 296 295 295 293 290 290 294 294 294 293 292 291 290 292 293 290 288 285 284 282 278 277 277 276 274 274 274
298 301 300 298 295 293 292 291 291 291 290 289 287 287 289 292 296 296 295 293 292 290 288 292 294 294 293 292 290 291 293 292 289 289 288 287 284 280 279 279 279 278 276 274
296 300 300 299 297 291 290 291 291 291 290 290 289 288 289 291 294 297 296 292 290 290 289 290 291 292 292 290 289 290 291 290 290 290 288 288 286 284 283 283 283 282 279 278
293 296 299 299 297 290 289 290 291 291 290 290 290 289 290 291 292 295 294 292 289 288 288 287 290 291 290 288 287 287 287 286 287 288 287 288 287 287 286 285 283 281 281 280
291 294 298 300 297 291 289 290 291 291 291 291 290 290 290 291 291 293 292 290 288 286 287 286 288 290 289 286 284 284 285 284 285 288 289 289 289 288 287 285 284 285 284 284
Height
5687 5687 5685 5684 5683 5683 5683 5683 5683 5683 5682 5681 5682 5682 5682 5680 5680 5679 5679 5678 5677 5677 5677 5676 5676 5676 5676 5676 5677 5679 5681 5683 5684 5687 5689 5691 5693 5694 5696 5698 5701 5703 5704 5706
5680 5680 5678 5677 5676 5676 5675 5675 5675 5675 5674 5673 5673 5674 5674 5672 5672 5671 5670 5670 5669 5668 5667 5667 5666 5666 5666 5666 5667 5669 5671 5672 5674 5676 5678 5679 5680 5682 5685 5687 5689 5691 5692 5694
5674 5674 5672 5671 5670 5669 5668 5668 5668 5667 5667 5665 5665 5666 5666 5665 5664 5663 5662 5662 5661 5660 5659 5658 5657 5657 5656 5656 5657 5658 5660 5662 5663 5664 5666 5667 5669 5671 5673 5676 5678 5679 5680 5682
5668 5667 5666 5665 5664 5662 5662 5661 5660 5659 5658 5658 5658 5656 5659 5657 5656 5656 5655 5653 5653 5651 5650 5649 5648 5647 5647 5647 5647 5648 5649 5651 5652 5653 5655 5657 5658 5661 5663 5664 5666 5668 5669 5671
5662 5661 5660 5659 5658 5656 5655 5654 5653 5652 5651 5651 5650 5648 5651 5649 5649 5648 5646 5645 5644 5642 5641 5639 5638 5638 5637 5637 5637 5637 5637 5639 5640 5641 5643 5645 5647 5649 5651 5653 5655 5657 5659 5660
5657 5655 5654 5653 5652 5651 5649 5649 5647 5645 5643 5644 5644 5642 5643 5642 5640 5639 5638 5636 5634 5633 5631 5630 5629 5628 5627 5627 5626 5626 5626 5627 5628 5629 5631 5633 5635 5637 5640 5642 5644 5646 5648 5649
5652 5650 5648 5647 5646 5645 5644 5643 5641 5638 5637 5637 5637 5635 5636 5635 5633 5631 5630 5628 5626 5624 5623 5622 5621 5619 5618 5618 5617 5616 5615 5616 5617 5618 5619 5621 5623 5625 5628 5630 5632 5635 5637 5638
5646 5646 5644 5642 5641 5640 5638 5637 5635 5633 5631 5630 5630 5628 5630 5628 5625 5624 5622 5620 5618 5617 5615 5613 5612 5610 5609 5609 5608 5607 5606 5606 5606 5607 5609 5609 5611 5613 5616 5619 5621 5624 5626 5627
5640 5640 5639 5637 5636 5635 5633 5631 5629 5627 5625 5624 5623 5622 5622 5621 5619 5617 5615 5613 5611 5609 5607 5606 5604 5603 5601 5600 5600 5599 5598 5597 5597 5598 5599 5600 5600 5602 5605 5608 5611 5613 5615 5616
5634 5634 5634 5632 5631 5629 5628 5626 5624 5621 5619 5617 5618 5617 5616 5614 5612 5610 5608 5606 5604 5602 5600 5599 5597 5595 5594 5593 5592 5591 5589 5589 5589 5590 5590 5591 5591 5592 5594 5597 5600 5602 5603 5605
5629 5628 5628 5626 5625 5624 5623 5621 5618 5616 5613 5612 5610 5613 5609 5607 5605 5603 5601 5599 5597 5595 5593 5591 5590 5588 5586 5585 5584 5583 5582 5582 5582 5582 5582 5582 5582 5583 5585 5587 5589 5590 5592 5594
5623 5622 5621 5620 5619 5617 5616 5614 5612 5611 5608 5606 5604 5607 5603 5601 5599 5597 5595 5593 5591 5589 5587 5585 5583 5582 5580 5578 5577 5576 5575 5575 5574 5574 5574 5574 5574 5574 5575 5576 5578 5579 5581 5583
5617 5616 5615 5614 5615 5612 5610 5608 5605 5604 5602 5600 5598 5601 5597 5595 5593 5591 5589 5587 5585 5583 5581 5579 5577 5575 5573 5571 5570 5569 5568 5567 5567 5566 5565 5565 5566 5565 5566 5566 5568 5569 5571 5573
5611 5610 5610 5609 5606 5604 5603 5602 5599 5597 5595 5594 5593 5593 5592 5589 5587 5585 5584 5581 5579 5577 5575 5573 5571 5569 5567 5565 5563 5562 5561 5560 5559 5558 5558 5557 5557 5556 5557 5557 5558 5560 5561 5563
5605 5604 5603 5601 5599 5598 5596 5595 5593 5591 5589 5588 5588 5586 5585 5583 5581 5579 5577 5575 5574 5572 5569 5567 5565 5563 5561 5559 5557 5555 5554 5552 5551 5551 5550 5549 5549 5548 5548 5549 5550 5551 5553 5554
5599 5598 5596 5595 5593 5591 5590 5589 5587 5586 5584 5582 5581 5581 5579 5577 5575 5573 5571 5570 5568 5566 5564 5562 5559 5557 5555 5553 5551 5549 5547 5545 5544 5544 5543 5542 5541 5540 5540 5541 5542 5543 5545 5546
5593 5591 5589 5588 5587 5584 5584 5585 5582 5580 5579 5577 5576 5576 5573 5571 5569 5567 5565 5564 5562 5560 5558 5556 5553 5551 5548 5546 5544 5542 5540 5539 5537 5536 5535 5534 5534 5533 5534 5534 5535 5536 5537 5538
5587 5585 5582 5581 5581 5579 5582 5577 5576 5574 5573 5571 5570 5569 5567 5565 5563 5561 5559 5557 5556 5554 5552 5550 5547 5545 5542 5540 5538 5536 5534 5532 5531 5529 5528 5528 5527 5527 5527 5528 5528 5529 5530 5531
5581 5579 5576 5574 5573 5572 5573 5571 5569 5567 5567 5565 5564 5563 5561 5559 5557 5556 5553 5552 5550 5547 5545 5543 5540 5538 5536 5534 5532 5530 5528 5527 5525 5523 5522 5522 5521 5521 5521 5522 5522 5522 5523 5524
5576 5573 5571 5568 5566 5566 5567 5565 5562 5561 5561 5559 5557 5556 5554 5552 5552 5551 5548 5546 5544 5541 5539 5536 5534 5533 5530 5528 5526 5525 5523 5521 5519 5518 5517 5516 5516 5516 5515 5516 5516 5516 5516 5516
5570 5567 5565 5562 5560 5559 5560 5558 5556 5556 5555 5552 5550 5549 5547 5546 5545 5543 5541 5539 5537 5535 5533 5530 5529 5527 5525 5523 5521 5519 5518 5516 5514 5513 5512 5511 5511 5510 5510 5510 5510 5510 5510 5510
5564 5562 5559 5556 5554 5556 5553 5551 5550 5549 5547 5545 5544 5543 5541 5540 5538 5536 5534 5532 5531 5529 5527 5525 5523 5522 5520 5518 5516 5514 5513 5511 5510 5509 5508 5507 5506 5506 5505 5504 5504 5504 5504 5504
5559 5557 5554 5552 5552 5548 5546 5544 5543 5542 5541 5539 5538 5536 5535 5533 5532 5530 5528 5526 5525 5523 5521 5519 5518 5516 5514 5513 5511 5510 5508 5507 5505 5504 5503 5502 5502 5501 5500 5500 5499 5498 5498 5498
5554 5551 5548 5546 5545 5542 5540 5538 5536 5535 5534 5532 5531 5530 5528 5527 5525 5523 5521 5520 5518 5517 5515 5514 5512 5511 5509 5507 5506 5504 5503 5502 5501 5500 5499 5498 5497 5496 5495 5494 5493 5493 5492 5492
5548 5545 5542 5540 5539 5536 5534 5532 5530 5529 5527 5526 5524 5523 5521 5520 5518 5516 5514 5513 5511 5510 5509 5508 5506 5505 5503 5502 5501 5499 5498 5497 5496 5495 5494 5493 5492 5491 5489 5488 5487 5487 5486 5486
5541 5539 5536 5535 5532 5529 5528 5526 5524 5522 5521 5519 5517 5516 5514 5512 5511 5509 5508 5506 5505 5504 5503 5501 5500 5499 5498 5497 5495 5494 5493 5492 5492 5491 5489 5488 5487 5485 5484 5483 5482 5481 5480 5479